| time (UTC) | temp C | wind direction | speed KPH | gust KPH | rain 1hr cm | rain 24hr cm | rain mn cm | humidity % | barometer mb |
| 20260903064004 | 13 | 201 | 3.2 | 11.3 | 0.00 | 0.69 | 0.69 | 87 | 1009.1 |
| 20260903062505 | 13 | 195 | 4.8 | 9.7 | 0.00 | 0.69 | 0.69 | 87 | 1009.1 |
| 20260903062005 | 13 | 177 | 6.4 | 9.7 | 0.00 | 0.69 | 0.69 | 87 | 1009.0 |
| 20260903061505 | 13 | 164 | 4.8 | 9.7 | 0.00 | 0.69 | 0.69 | 87 | 1009.0 |
| 20260903061004 | 13 | 183 | 4.8 | 8.0 | 0.00 | 0.69 | 0.69 | 87 | 1009.1 |
| 20260903060505 | 13 | 195 | 3.2 | 14.5 | 0.00 | 0.69 | 0.69 | 86 | 1009.2 |
| 20260903060004 | 13 | 200 | 4.8 | 11.3 | 0.00 | 0.69 | 0.69 | 86 | 1009.2 |
| 20260903055505 | 13 | 175 | 3.2 | 9.7 | 0.00 | 0.69 | 0.69 | 86 | 1009.3 |
| 20260903055005 | 13 | 198 | 4.8 | 12.9 | 0.00 | 0.69 | 0.69 | 86 | 1009.3 |
| 20260903054505 | 13 | 198 | 9.7 | 12.9 | 0.00 | 0.69 | 0.69 | 86 | 1009.3 |
| 20260903054005 | 13 | 189 | 4.8 | 11.3 | 0.00 | 0.69 | 0.69 | 86 | 1009.3 |
| 20260903053504 | 13 | 173 | 4.8 | 16.1 | 0.00 | 0.69 | 0.69 | 86 | 1009.2 |
| 20260903051005 | 13 | 184 | 4.8 | 9.7 | 0.00 | 0.69 | 0.69 | 85 | 1009.2 |
| 20260903050505 | 13 | 189 | 4.8 | 9.7 | 0.00 | 0.69 | 0.69 | 85 | 1009.1 |
| 20260903050005 | 13 | 202 | 3.2 | 14.5 | 0.00 | 0.69 | 0.69 | 85 | 1009.0 |
| 20260903045505 | 13 | 187 | 6.4 | 11.3 | 0.00 | 0.69 | 0.69 | 86 | 1009.0 |
| 20260903045004 | 13 | 183 | 3.2 | 8.0 | 0.00 | 0.69 | 0.69 | 85 | 1009.0 |
| 20260903044505 | 13 | 203 | 8.0 | 11.3 | 0.00 | 0.69 | 0.69 | 86 | 1008.8 |
| 20260903044004 | 13 | 179 | 8.0 | 11.3 | 0.00 | 0.69 | 0.69 | 86 | 1008.8 |
| 20260903043505 | 13 | 194 | 4.8 | 9.7 | 0.00 | 0.69 | 0.69 | 86 | 1008.7 |
| 20260903043005 | 13 | 203 | 4.8 | 8.0 | 0.00 | 0.69 | 0.69 | 86 | 1008.6 |
| 20260903042504 | 13 | 202 | 4.8 | 8.0 | 0.00 | 0.69 | 0.69 | 86 | 1008.5 |
| 20260903042005 | 13 | 193 | 3.2 | 9.7 | 0.00 | 0.69 | 0.69 | 86 | 1008.6 |
| 20260903041505 | 13 | 203 | 4.8 | 9.7 | 0.00 | 0.69 | 0.69 | 85 | 1008.5 |
| 20260903041005 | 13 | 197 | 3.2 | 4.8 | 0.00 | 0.69 | 0.69 | 85 | 1008.6 |
| 20260903040504 | 13 | 203 | 3.2 | 8.0 | 0.00 | 0.69 | 0.69 | 84 | 1008.5 |
| 20260903040004 | 13 | 225 | 4.8 | 4.8 | 0.00 | 0.69 | 0.69 | 84 | 1008.5 |
| 20260903035505 | 13 | 215 | 3.2 | 8.0 | 0.00 | 0.69 | 0.69 | 84 | 1008.3 |
| 20260903035005 | 13 | 204 | 4.8 | 9.7 | 0.00 | 0.69 | 0.69 | 85 | 1008.3 |
| 20260903034505 | 13 | 209 | 3.2 | 9.7 | 0.00 | 0.69 | 0.69 | 85 | 1008.3 |
| 20260903033505 | 13 | 191 | 3.2 | 8.0 | 0.00 | 0.69 | 0.69 | 85 | 1008.0 |
| 20260903032005 | 13 | 194 | 3.2 | 4.8 | 0.00 | 0.69 | 0.69 | 84 | 1007.9 |
| 20260903031504 | 14 | 218 | 4.8 | 4.8 | 0.00 | 0.69 | 0.69 | 84 | 1008.0 |
| 20260903031004 | 14 | 215 | 3.2 | 8.0 | 0.00 | 0.69 | 0.69 | 83 | 1007.9 |
| 20260903030504 | 14 | 214 | 3.2 | 4.8 | 0.00 | 0.69 | 0.69 | 83 | 1007.8 |
| 20260903030005 | 15 | 213 | 3.2 | 4.8 | 0.00 | 0.69 | 0.69 | 82 | 1007.8 |
| 20260903025005 | 15 | 243 | 1.6 | 4.8 | 0.00 | 0.69 | 0.69 | 80 | 1007.6 |
| 20260903024504 | 15 | 212 | 4.8 | 9.7 | 0.00 | 0.69 | 0.69 | 80 | 1007.6 |
| 20260903024005 | 15 | 210 | 3.2 | 4.8 | 0.00 | 0.69 | 0.69 | 80 | 1007.6 |
| 20260903023504 | 16 | 218 | 3.2 | 4.8 | 0.00 | 0.69 | 0.69 | 80 | 1007.6 |
| 20260903023005 | 16 | 206 | 3.2 | 4.8 | 0.00 | 0.69 | 0.69 | 79 | 1007.5 |
| 20260903022505 | 16 | 225 | 3.2 | 4.8 | 0.00 | 0.69 | 0.69 | 78 | 1007.5 |
| 20260903022004 | 17 | 170 | 3.2 | 4.8 | 0.00 | 0.69 | 0.69 | 78 | 1007.4 |
| 20260903021505 | 17 | 196 | 1.6 | 4.8 | 0.00 | 0.69 | 0.69 | 76 | 1007.4 |
| 20260903021004 | 17 | 201 | 3.2 | 4.8 | 0.03 | 0.69 | 0.69 | 74 | 1007.4 |
| 20260903020504 | 18 | 206 | 4.8 | 4.8 | 0.03 | 0.69 | 0.69 | 72 | 1007.3 |
| 20260903020004 | 18 | 235 | 3.2 | 8.0 | 0.03 | 0.69 | 0.69 | 72 | 1007.2 |
| 20260903015504 | 18 | 221 | 3.2 | 3.2 | 0.03 | 0.69 | 0.69 | 70 | 1007.3 |
| 20260903015004 | 18 | 272 | 1.6 | 4.8 | 0.03 | 0.69 | 0.69 | 73 | 1007.2 |
| 20260903014505 | 18 | 254 | 4.8 | 9.7 | 0.03 | 0.69 | 0.69 | 70 | 1007.3 |
| 20260903013505 | 18 | 234 | 0.0 | 3.2 | 0.03 | 0.69 | 0.69 | 71 | 1007.2 |
| 20260903013005 | 18 | 234 | 0.0 | 3.2 | 0.03 | 0.69 | 0.69 | 73 | 1007.1 |
| 20260903012505 | 17 | 211 | 0.0 | 3.2 | 0.03 | 0.69 | 0.69 | 76 | 1007.1 |
| 20260903012005 | 17 | 205 | 1.6 | 3.2 | 0.03 | 0.69 | 0.69 | 73 | 1007.0 |
| 20260903011005 | 18 | 235 | 1.6 | 3.2 | 0.00 | 0.66 | 0.66 | 73 | 1006.9 |
| 20260903010504 | 18 | 206 | 1.6 | 8.0 | 0.00 | 0.66 | 0.66 | 69 | 1006.9 |
| 20260903010005 | 18 | 200 | 4.8 | 9.7 | 0.00 | 0.66 | 0.66 | 68 | 1006.9 |
| 20260903005505 | 18 | 221 | 4.8 | 9.7 | 0.00 | 0.66 | 0.66 | 70 | 1006.8 |
| 20260903005005 | 19 | 258 | 6.4 | 12.9 | 0.00 | 0.66 | 0.66 | 67 | 1006.8 |
| 20260903004504 | 18 | 214 | 3.2 | 11.3 | 0.00 | 0.66 | 0.66 | 67 | 1006.7 |
| 20260903004004 | 18 | 198 | 8.0 | 14.5 | 0.00 | 0.66 | 0.66 | 69 | 1006.6 |
| 20260903003505 | 18 | 175 | 8.0 | 11.3 | 0.00 | 0.66 | 0.66 | 73 | 1006.7 |
| 20260903003004 | 18 | 193 | 8.0 | 11.3 | 0.00 | 0.66 | 0.66 | 72 | 1006.8 |
| 20260903002504 | 18 | 182 | 6.4 | 11.3 | 0.00 | 0.66 | 0.66 | 71 | 1006.7 |
| 20260903002004 | 18 | 176 | 3.2 | 12.9 | 0.00 | 0.66 | 0.66 | 68 | 1006.7 |
| 20260903001505 | 19 | 204 | 9.7 | 16.1 | 0.00 | 0.66 | 0.66 | 72 | 1006.6 |
| 20260903000505 | 18 | 204 | 6.4 | 11.3 | 0.00 | 0.66 | 0.66 | 73 | 1006.7 |
| 20260902235505 | 18 | 258 | 6.4 | 14.5 | 0.00 | 0.66 | 0.66 | 71 | 1006.6 |
| 20260902235005 | 18 | 226 | 4.8 | 9.7 | 0.00 | 0.66 | 0.66 | 71 | 1006.6 |
| 20260902234504 | 18 | 148 | 4.8 | 9.7 | 0.00 | 0.66 | 0.66 | 73 | 1006.5 |
| 20260902234005 | 18 | 199 | 6.4 | 11.3 | 0.00 | 0.66 | 0.66 | 71 | 1006.5 |
| 20260902233504 | 18 | 201 | 8.0 | 12.9 | 0.00 | 0.66 | 0.66 | 76 | 1006.4 |
| 20260902232504 | 18 | 186 | 4.8 | 12.9 | 0.00 | 0.66 | 0.66 | 77 | 1006.5 |
| 20260902232005 | 18 | 202 | 3.2 | 4.8 | 0.00 | 0.66 | 0.66 | 78 | 1006.5 |
| 20260902231504 | 17 | 182 | 4.8 | 8.0 | 0.00 | 0.66 | 0.66 | 81 | 1006.4 |
| 20260902231005 | 17 | 175 | 4.8 | 9.7 | 0.03 | 0.66 | 0.66 | 81 | 1006.4 |
| 20260902230004 | 17 | 225 | 6.4 | 12.9 | 0.03 | 0.66 | 0.66 | 85 | 1006.4 |
| 20260902225504 | 17 | 169 | 8.0 | 14.5 | 0.03 | 0.66 | 0.66 | 87 | 1006.4 |
| 20260902224505 | 16 | 200 | 8.0 | 14.5 | 0.03 | 0.66 | 0.66 | 88 | 1006.1 |
| 20260902224004 | 16 | 196 | 6.4 | 12.9 | 0.03 | 0.66 | 0.66 | 89 | 1006.1 |
| 20260902223505 | 16 | 205 | 9.7 | 12.9 | 0.03 | 0.66 | 0.66 | 89 | 1006.0 |
| 20260902223004 | 16 | 180 | 9.7 | 20.9 | 0.05 | 0.66 | 0.66 | 89 | 1006.0 |
| 20260902222505 | 15 | 183 | 8.0 | 16.1 | 0.05 | 0.66 | 0.66 | 90 | 1006.0 |
| 20260902222004 | 15 | 192 | 9.7 | 19.3 | 0.05 | 0.66 | 0.66 | 89 | 1006.0 |
| 20260902221506 | 15 | 190 | 12.9 | 22.5 | 0.05 | 0.66 | 0.66 | 89 | 1005.9 |
| 20260902220505 | 15 | 176 | 16.1 | 24.1 | 0.03 | 0.64 | 0.64 | 90 | 1005.7 |
| 20260902215504 | 15 | 176 | 12.9 | 25.7 | 0.05 | 0.64 | 0.64 | 90 | 1005.6 |
| 20260902215005 | 15 | 146 | 14.5 | 25.7 | 0.05 | 0.64 | 0.64 | 90 | 1005.5 |
| 20260902214504 | 15 | 178 | 11.3 | 20.9 | 0.05 | 0.64 | 0.64 | 90 | 1005.6 |
| 20260902214005 | 15 | 154 | 9.7 | 20.9 | 0.05 | 0.64 | 0.64 | 90 | 1005.6 |
| 20260902213504 | 15 | 175 | 9.7 | 22.5 | 0.05 | 0.64 | 0.64 | 90 | 1005.6 |
| 20260902213004 | 15 | 174 | 11.3 | 27.4 | 0.05 | 0.61 | 0.61 | 90 | 1005.6 |
| 20260902212505 | 15 | 184 | 11.3 | 20.9 | 0.05 | 0.61 | 0.61 | 90 | 1005.6 |
| 20260902212004 | 15 | 163 | 11.3 | 20.9 | 0.05 | 0.61 | 0.61 | 90 | 1005.6 |
| 20260902211504 | 15 | 151 | 11.3 | 20.9 | 0.05 | 0.61 | 0.61 | 89 | 1005.6 |
| 20260902211004 | 15 | 167 | 12.9 | 22.5 | 0.08 | 0.61 | 0.61 | 89 | 1005.5 |
| 20260902205505 | 15 | 163 | 12.9 | 22.5 | 0.08 | 0.58 | 0.58 | 89 | 1005.5 |
| 20260902205004 | 14 | 176 | 16.1 | 25.7 | 0.08 | 0.58 | 0.58 | 89 | 1005.4 |
| 20260902204504 | 15 | 165 | 16.1 | 22.5 | 0.08 | 0.58 | 0.58 | 90 | 1005.4 |
| 20260902203505 | 14 | 162 | 9.7 | 24.1 | 0.08 | 0.58 | 0.58 | 89 | 1005.4 |
| 20260902202004 | 14 | 179 | 8.0 | 20.9 | 0.08 | 0.56 | 0.56 | 89 | 1005.4 |
| 20260902201005 | 14 | 180 | 9.7 | 24.1 | 0.05 | 0.53 | 0.53 | 89 | 1005.4 |
| 20260902200505 | 14 | 158 | 12.9 | 25.7 | 0.05 | 0.53 | 0.53 | 88 | 1005.4 |
| 20260902200004 | 14 | 159 | 16.1 | 24.1 | 0.08 | 0.53 | 0.53 | 88 | 1005.3 |
| 20260902195504 | 14 | 161 | 11.3 | 20.9 | 0.10 | 0.51 | 0.51 | 88 | 1005.4 |
| 20260902195004 | 15 | 191 | 11.3 | 25.7 | 0.15 | 0.51 | 0.51 | 88 | 1005.4 |
| 20260902194504 | 15 | 185 | 9.7 | 27.4 | 0.15 | 0.51 | 0.51 | 88 | 1005.3 |
| 20260902193504 | 14 | 125 | 9.7 | 16.1 | 0.18 | 0.51 | 0.51 | 89 | 1005.3 |
| 20260902192505 | 14 | 177 | 14.5 | 19.3 | 0.20 | 0.51 | 0.51 | 89 | 1005.5 |
| 20260902192004 | 14 | 184 | 14.5 | 22.5 | 0.18 | 0.48 | 0.48 | 89 | 1005.6 |
| 20260902191505 | 14 | 176 | 6.4 | 20.9 | 0.18 | 0.48 | 0.48 | 89 | 1005.7 |
| 20260902191004 | 14 | 163 | 6.4 | 19.3 | 0.18 | 0.48 | 0.48 | 89 | 1005.7 |
| 20260902190504 | 14 | 133 | 6.4 | 14.5 | 0.18 | 0.48 | 0.48 | 88 | 1005.8 |
| 20260902190004 | 15 | 169 | 11.3 | 16.1 | 0.18 | 0.46 | 0.46 | 88 | 1006.0 |
| 20260902185505 | 15 | 172 | 9.7 | 19.3 | 0.13 | 0.41 | 0.41 | 88 | 1006.1 |
| 20260902185004 | 15 | 172 | 8.0 | 16.1 | 0.10 | 0.36 | 0.36 | 88 | 1006.0 |
| 20260902184504 | 15 | 191 | 9.7 | 16.1 | 0.10 | 0.36 | 0.36 | 88 | 1006.0 |
| 20260902184005 | 15 | 182 | 9.7 | 16.1 | 0.08 | 0.33 | 0.33 | 88 | 1005.9 |
| 20260902183504 | 15 | 151 | 9.7 | 16.1 | 0.10 | 0.33 | 0.33 | 88 | 1006.0 |
| 20260902183005 | 15 | 171 | 9.7 | 14.5 | 0.08 | 0.30 | 0.30 | 88 | 1006.0 |
| 20260902182504 | 15 | 185 | 4.8 | 11.3 | 0.08 | 0.30 | 0.30 | 88 | 1006.0 |
| 20260902182004 | 15 | 150 | 8.0 | 16.1 | 0.10 | 0.30 | 0.30 | 88 | 1006.1 |
| 20260902181505 | 14 | 181 | 8.0 | 16.1 | 0.13 | 0.30 | 0.30 | 88 | 1006.1 |
| 20260902181004 | 14 | 166 | 9.7 | 16.1 | 0.13 | 0.30 | 0.30 | 88 | 1006.2 |
| 20260902180505 | 15 | 155 | 8.0 | 19.3 | 0.18 | 0.30 | 0.30 | 88 | 1006.2 |
| 20260902175504 | 15 | 179 | 9.7 | 19.3 | 0.18 | 0.28 | 0.28 | 88 | 1006.4 |
| 20260902175005 | 15 | 149 | 11.3 | 20.9 | 0.18 | 0.25 | 0.25 | 88 | 1006.4 |
| 20260902174505 | 15 | 134 | 6.4 | 19.3 | 0.20 | 0.25 | 0.25 | 88 | 1006.4 |
| 20260902174004 | 15 | 176 | 8.0 | 14.5 | 0.23 | 0.25 | 0.25 | 88 | 1006.4 |
| 20260902173505 | 15 | 162 | 9.7 | 19.3 | 0.20 | 0.23 | 0.23 | 88 | 1006.5 |
| 20260902173004 | 15 | 158 | 8.0 | 11.3 | 0.23 | 0.23 | 0.23 | 88 | 1006.4 |
| 20260902172504 | 15 | 150 | 4.8 | 16.1 | 0.23 | 0.23 | 0.23 | 88 | 1006.4 |
| 20260902171505 | 15 | 181 | 4.8 | 14.5 | 0.18 | 0.18 | 0.18 | 87 | 1006.4 |
| 20260902170504 | 15 | 182 | 4.8 | 8.0 | 0.13 | 0.13 | 0.13 | 87 | 1006.5 |
| 20260902170005 | 15 | 183 | 3.2 | 8.0 | 0.10 | 0.10 | 0.10 | 86 | 1006.4 |
| 20260902165504 | 15 | 165 | 3.2 | 4.8 | 0.10 | 0.10 | 0.10 | 86 | 1006.5 |
| 20260902164505 | 15 | 155 | 3.2 | 8.0 | 0.05 | 0.05 | 0.05 | 86 | 1006.4 |
| 20260902164004 | 15 | 163 | 3.2 | 4.8 | 0.03 | 0.03 | 0.03 | 85 | 1006.5 |
| 20260902163504 | 15 | 158 | 3.2 | 8.0 | 0.03 | 0.03 | 0.03 | 85 | 1006.5 |
| 20260902163004 | 15 | 171 | 1.6 | 4.8 | 0.00 | 0.00 | 0.00 | 85 | 1006.4 |
| 20260902162504 | 15 | 174 | 3.2 | 8.0 | 0.00 | 0.00 | 0.00 | 85 | 1006.5 |
| 20260902162004 | 15 | 170 | 3.2 | 4.8 | 0.00 | 0.00 | 0.00 | 84 | 1006.4 |
| 20260902161504 | 15 | 202 | 1.6 | 3.2 | 0.00 | 0.00 | 0.00 | 84 | 1006.4 |
| 20260902161004 | 15 | 184 | 3.2 | 4.8 | 0.00 | 0.00 | 0.00 | 83 | 1006.4 |
| 20260902160504 | 15 | 173 | 3.2 | 4.8 | 0.00 | 0.00 | 0.00 | 82 | 1006.4 |
| 20260902160006 | 15 | 171 | 3.2 | 8.0 | 0.00 | 0.00 | 0.00 | 82 | 1006.4 |
| 20260902155504 | 15 | 215 | 3.2 | 4.8 | 0.00 | 0.00 | 0.00 | 82 | 1006.4 |
| 20260902155004 | 15 | 181 | 3.2 | 8.0 | 0.00 | 0.00 | 0.00 | 83 | 1006.4 |
| 20260902154504 | 15 | 159 | 1.6 | 8.0 | 0.00 | 0.00 | 0.00 | 82 | 1006.5 |
| 20260902154004 | 15 | 191 | 3.2 | 3.2 | 0.00 | 0.00 | 0.00 | 83 | 1006.5 |
| 20260902153504 | 15 | 173 | 1.6 | 4.8 | 0.00 | 0.00 | 0.00 | 84 | 1006.6 |
| 20260902152504 | 15 | 192 | 3.2 | 3.2 | 0.00 | 0.00 | 0.00 | 84 | 1006.7 |
| 20260902152005 | 15 | 188 | 1.6 | 3.2 | 0.00 | 0.00 | 0.00 | 84 | 1006.8 |
| 20260902151505 | 15 | 209 | 1.6 | 8.0 | 0.00 | 0.00 | 0.00 | 84 | 1006.8 |
| 20260902151005 | 15 | 190 | 3.2 | 9.7 | 0.00 | 0.00 | 0.00 | 84 | 1007.0 |
| 20260902150504 | 15 | 180 | 4.8 | 9.7 | 0.00 | 0.00 | 0.00 | 84 | 1007.0 |
| 20260902150004 | 15 | 199 | 4.8 | 8.0 | 0.00 | 0.00 | 0.00 | 84 | 1007.0 |
| 20260902145506 | 15 | 196 | 3.2 | 4.8 | 0.00 | 0.00 | 0.00 | 85 | 1007.0 |
| 20260902145004 | 15 | 189 | 3.2 | 3.2 | 0.00 | 0.00 | 0.00 | 85 | 1007.0 |
| 20260902144505 | 14 | 193 | 0.0 | 1.6 | 0.00 | 0.00 | 0.00 | 85 | 1007.0 |
| 20260902144004 | 14 | 193 | 1.6 | 3.2 | 0.00 | 0.00 | 0.00 | 86 | 1007.1 |
| 20260902143504 | 14 | 192 | 0.0 | 3.2 | 0.00 | 0.00 | 0.00 | 86 | 1007.1 |
| 20260902143004 | 14 | 223 | 1.6 | 3.2 | 0.00 | 0.00 | 0.00 | 86 | 1007.1 |
| 20260902142504 | 14 | 223 | 0.0 | 1.6 | 0.00 | 0.00 | 0.00 | 86 | 1007.1 |
| 20260902142004 | 14 | 223 | 1.6 | 3.2 | 0.00 | 0.00 | 0.00 | 86 | 1007.2 |
| 20260902141504 | 14 | 223 | 1.6 | 1.6 | 0.00 | 0.00 | 0.00 | 86 | 1007.3 |
| 20260902140504 | 14 | 223 | 0.0 | 3.2 | 0.00 | 0.00 | 0.00 | 86 | 1007.3 |
| 20260902140005 | 14 | 223 | 1.6 | 3.2 | 0.00 | 0.00 | 0.00 | 86 | 1007.3 |
| 20260902134504 | 14 | 223 | 1.6 | 3.2 | 0.00 | 0.00 | 0.00 | 86 | 1007.6 |
| 20260902134004 | 14 | 202 | 1.6 | 3.2 | 0.00 | 0.00 | 0.00 | 86 | 1007.6 |
| 20260902133004 | 14 | 148 | 0.0 | 0.0 | 0.00 | 0.00 | 0.00 | 86 | 1007.6 |
| 20260902132504 | 14 | 148 | 0.0 | 0.0 | 0.00 | 0.00 | 0.00 | 86 | 1007.6 |
| 20260902132004 | 14 | 148 | 0.0 | 3.2 | 0.00 | 0.00 | 0.00 | 86 | 1007.7 |
| 20260902131504 | 14 | 148 | 0.0 | 3.2 | 0.00 | 0.00 | 0.00 | 86 | 1007.8 |
| 20260902131004 | 14 | 153 | 1.6 | 3.2 | 0.00 | 0.00 | 0.00 | 86 | 1007.9 |
| 20260902130504 | 14 | 213 | 0.0 | 0.0 | 0.00 | 0.00 | 0.00 | 86 | 1008.1 |
| 20260902125504 | 14 | 213 | 0.0 | 3.2 | 0.00 | 0.00 | 0.00 | 86 | 1008.2 |
| 20260902124504 | 14 | 213 | 1.6 | 3.2 | 0.00 | 0.00 | 0.00 | 86 | 1008.4 |
| 20260902124004 | 14 | 213 | 0.0 | 0.0 | 0.00 | 0.00 | 0.00 | 86 | 1008.4 |
| 20260902123504 | 14 | 213 | 0.0 | 3.2 | 0.00 | 0.00 | 0.00 | 86 | 1008.4 |
| 20260902123005 | 14 | 213 | 1.6 | 1.6 | 0.00 | 0.00 | 0.00 | 86 | 1008.5 |
| 20260902122504 | 14 | 156 | 1.6 | 3.2 | 0.00 | 0.00 | 0.00 | 86 | 1008.5 |
| 20260902122004 | 14 | 153 | 0.0 | 0.0 | 0.00 | 0.00 | 0.00 | 86 | 1008.6 |
| 20260902121504 | 14 | 153 | 0.0 | 0.0 | 0.00 | 0.00 | 0.00 | 86 | 1008.7 |
| 20260902121004 | 14 | 153 | 0.0 | 0.0 | 0.00 | 0.00 | 0.00 | 86 | 1008.7 |
| 20260902120504 | 14 | 153 | 0.0 | 0.0 | 0.00 | 0.00 | 0.00 | 86 | 1008.8 |
| 20260902120004 | 14 | 153 | 0.0 | 0.0 | 0.00 | 0.00 | 0.00 | 85 | 1008.9 |
| 20260902115505 | 14 | 153 | 0.0 | 0.0 | 0.00 | 0.00 | 0.00 | 85 | 1008.9 |
| 20260902115004 | 14 | 153 | 0.0 | 0.0 | 0.00 | 0.00 | 0.00 | 85 | 1009.0 |
| 20260902114504 | 14 | 153 | 0.0 | 0.0 | 0.00 | 0.00 | 0.00 | 85 | 1009.1 |
| 20260902113504 | 15 | 153 | 1.6 | 3.2 | 0.00 | 0.00 | 0.00 | 85 | 1009.3 |
| 20260902113004 | 15 | 153 | 0.0 | 0.0 | 0.00 | 0.00 | 0.00 | 85 | 1009.3 |
| 20260902112504 | 15 | 153 | 0.0 | 3.2 | 0.00 | 0.00 | 0.00 | 84 | 1009.3 |
| 20260902112004 | 15 | 171 | 3.2 | 4.8 | 0.00 | 0.00 | 0.00 | 84 | 1009.4 |
| 20260902111504 | 15 | 160 | 3.2 | 4.8 | 0.00 | 0.00 | 0.00 | 84 | 1009.4 |
| 20260902110504 | 15 | 158 | 3.2 | 3.2 | 0.00 | 0.00 | 0.00 | 84 | 1009.5 |
| 20260902105504 | 15 | 141 | 1.6 | 8.0 | 0.00 | 0.00 | 0.00 | 85 | 1009.5 |
| 20260902105004 | 15 | 182 | 1.6 | 3.2 | 0.00 | 0.00 | 0.00 | 85 | 1009.5 |
| 20260902104504 | 15 | 187 | 3.2 | 4.8 | 0.00 | 0.00 | 0.00 | 85 | 1009.6 |
| 20260902104004 | 15 | 198 | 0.0 | 3.2 | 0.00 | 0.00 | 0.00 | 85 | 1009.6 |
| 20260902103504 | 15 | 198 | 1.6 | 4.8 | 0.00 | 0.00 | 0.00 | 85 | 1009.7 |
| 20260902103005 | 14 | 181 | 3.2 | 4.8 | 0.00 | 0.00 | 0.00 | 85 | 1009.7 |
| 20260902102503 | 14 | 186 | 1.6 | 4.8 | 0.00 | 0.00 | 0.00 | 85 | 1009.7 |
| 20260902102004 | 14 | 205 | 1.6 | 3.2 | 0.00 | 0.00 | 0.00 | 85 | 1009.7 |
| 20260902101504 | 14 | 191 | 3.2 | 8.0 | 0.00 | 0.00 | 0.00 | 85 | 1009.8 |
| 20260902101004 | 14 | 188 | 0.0 | 3.2 | 0.00 | 0.00 | 0.00 | 85 | 1009.6 |
| 20260902100004 | 14 | 185 | 3.2 | 4.8 | 0.00 | 0.00 | 0.00 | 85 | 1009.7 |
| 20260902095504 | 14 | 190 | 1.6 | 4.8 | 0.00 | 0.00 | 0.00 | 85 | 1009.8 |
| 20260902095004 | 14 | 202 | 3.2 | 8.0 | 0.00 | 0.00 | 0.00 | 86 | 1009.8 |
| 20260902094504 | 14 | 210 | 3.2 | 8.0 | 0.00 | 0.00 | 0.00 | 86 | 1009.8 |
| 20260902092504 | 13 | 172 | 3.2 | 8.0 | 0.00 | 0.00 | 0.00 | 86 | 1010.0 |
| 20260902091504 | 13 | 185 | 1.6 | 3.2 | 0.00 | 0.00 | 0.00 | 86 | 1010.0 |
| 20260902090504 | 13 | 188 | 1.6 | 3.2 | 0.00 | 0.00 | 0.00 | 85 | 1010.3 |
| 20260902090005 | 13 | 195 | 1.6 | 3.2 | 0.00 | 0.00 | 0.00 | 85 | 1010.4 |
| 20260902085504 | 13 | 217 | 1.6 | 1.6 | 0.00 | 0.00 | 0.00 | 84 | 1010.3 |
| 20260902085004 | 14 | 233 | 1.6 | 3.2 | 0.00 | 0.00 | 0.00 | 84 | 1010.5 |
| 20260902084504 | 14 | 217 | 1.6 | 3.2 | 0.00 | 0.00 | 0.00 | 83 | 1010.4 |
| 20260902084004 | 15 | 183 | 0.0 | 1.6 | 0.00 | 0.00 | 0.00 | 83 | 1010.4 |
| 20260902083504 | 15 | 183 | 0.0 | 3.2 | 0.00 | 0.00 | 0.00 | 83 | 1010.4 |
| 20260902083005 | 15 | 183 | 1.6 | 3.2 | 0.00 | 0.00 | 0.00 | 83 | 1010.5 |
| 20260902082504 | 15 | 192 | 1.6 | 4.8 | 0.00 | 0.00 | 0.00 | 83 | 1010.5 |
| 20260902082004 | 15 | 200 | 3.2 | 4.8 | 0.00 | 0.00 | 0.00 | 83 | 1010.5 |
| 20260902081504 | 15 | 185 | 3.2 | 9.7 | 0.00 | 0.00 | 0.00 | 83 | 1010.5 |
| 20260902081004 | 15 | 201 | 4.8 | 9.7 | 0.00 | 0.00 | 0.00 | 83 | 1010.7 |
| 20260902080004 | 15 | 210 | 6.4 | 11.3 | 0.00 | 0.00 | 0.00 | 82 | 1010.6 |
| 20260902075504 | 15 | 202 | 4.8 | 11.3 | 0.00 | 0.00 | 0.00 | 82 | 1010.7 |
| 20260902075004 | 15 | 203 | 4.8 | 9.7 | 0.00 | 0.00 | 0.00 | 82 | 1010.7 |
| 20260902074504 | 15 | 202 | 4.8 | 9.7 | 0.00 | 0.00 | 0.00 | 81 | 1010.6 |
| 20260902074004 | 16 | 346 | 4.8 | 12.9 | 0.00 | 0.00 | 0.00 | 81 | 1010.6 |
| 20260902073504 | 16 | 226 | 4.8 | 14.5 | 0.00 | 0.00 | 0.00 | 80 | 1010.6 |
| 20260902073004 | 16 | 201 | 9.7 | 14.5 | 0.00 | 0.00 | 0.00 | 80 | 1010.7 |
| 20260902072504 | 16 | 191 | 9.7 | 19.3 | 0.00 | 0.00 | 0.00 | 79 | 1010.8 |
| 20260902072004 | 16 | 161 | 9.7 | 24.1 | 0.00 | 0.00 | 0.00 | 78 | 1010.8 |
| 20260902071504 | 16 | 179 | 9.7 | 16.1 | 0.00 | 0.00 | 0.00 | 78 | 1010.9 |
| 20260902071004 | 16 | 191 | 4.8 | 14.5 | 0.00 | 0.00 | 0.00 | 78 | 1010.8 |
| 20260902070504 | 16 | 205 | 8.0 | 19.3 | 0.00 | 0.00 | 0.00 | 78 | 1010.9 |
| 20260902070006 | 16 | 188 | 9.7 | 19.3 | 0.00 | 0.00 | 0.00 | 77 | 1011.0 |
| 20260902065504 | 16 | 165 | 6.4 | 11.3 | 0.00 | 0.00 | 0.00 | 77 | 1011.0 |
| 20260902065005 | 16 | 192 | 8.0 | 14.5 | 0.00 | 0.00 | 0.00 | 77 | 1011.0 |
| 20260902064504 | 16 | 194 | 8.0 | 14.5 | 0.00 | 0.00 | 0.00 | 77 | 1011.1 |